Location: Slave Lake
(55.2830°N, 114.7830°W)
Time: 04:41:57
(UTC-07:00)

Amateur Radio Satellites - All Passes

Search period start: 01 February 2015 04:11
Search period end: 02 February 2015 04:11
Location: Slave Lake, 55.2830°N, 114.7830°W

Satellite Date Start Highest point End Downlink Frequencies (MHz)
Time Altitude Azimuth
JAS-2 01 Feb 04:15:45 04:19:56 21° 88° (E) 04:24:35 435.910
BEESAT 2 01 Feb 04:17:53 04:21:56 47° 327° (NNW) 04:26:02 435.950
ITAMSAT 1 01 Feb 04:23:45 04:28:39 40° 298° (WNW) 04:33:31 435.822/435.867
GONETS M04 01 Feb 04:25:30 04:32:41 26° 312° (NW) 04:39:40
CUBESAT XI-V 01 Feb 04:26:00 04:28:41 16° 52° (NE) 04:31:30 437.345
YUBILEINY 01 Feb 04:26:25 04:33:04 24° 45° (NE) 04:39:55 435.215
BEESAT 3 01 Feb 04:28:58 04:32:55 39° 331° (NNW) 04:36:53 437.485
AIST 2 01 Feb 04:29:50 04:34:07 65° 322° (NW) 04:38:27 435.215
DANDE 01 Feb 04:39:52 04:48:29 74° 100° (E) 04:56:44 436.750
PRISM 01 Feb 04:44:46 04:48:02 24° 59° (ENE) 04:51:23 437.425
CUSAT 1 01 Feb 04:52:14 05:00:48 89° 292° (WNW) 05:08:43 437.405
RS-15 01 Feb 04:53:04 05:03:04 46° 116° (ESE) 05:13:23 29.354- 29.394
AO-7 01 Feb 05:01:42 05:10:00 62° 104° (ESE) 05:18:14 29.400- 29.500
PCSat 01 Feb 05:02:04 05:07:26 68° 127° (SE) 05:12:53 145.827
HORYU 2 01 Feb 05:10:05 05:14:23 46° 294° (WNW) 05:18:38 437.375
CUTE-I 01 Feb 05:32:10 05:34:40 14° 81° (E) 05:37:25 437.470
MOZHAYETS 4 01 Feb 05:37:44 05:41:32 25° 269° (W) 05:45:18
Gurwin Techsat 1B 01 Feb 05:40:13 05:43:56 19° 310° (NW) 05:47:31 435.225
STRAND 1 01 Feb 05:46:56 05:51:50 49° 65° (ENE) 05:56:48 437.568
BEESAT 2 01 Feb 05:57:34 06:01:00 24° 350° (N) 06:04:27 435.950
JAS-2 01 Feb 06:00:11 06:05:47 86° 288° (WNW) 06:12:02 435.910
CUBESAT XI-V 01 Feb 06:00:51 06:05:27 73° 71° (ENE) 06:10:07 437.345
ITAMSAT 1 01 Feb 06:05:17 06:06:58 11° 319° (NW) 06:08:30 435.822/435.867
BEESAT 3 01 Feb 06:08:39 06:12:00 22° 354° (N) 06:15:21 437.485
AIST 2 01 Feb 06:09:43 06:13:26 27° 344° (NNW) 06:17:09 435.215
PRISM 01 Feb 06:19:16 06:23:19 55° 258° (WSW) 06:27:24 437.425
YUBILEINY 01 Feb 06:23:10 06:31:57 68° 72° (ENE) 06:40:45 435.215
DANDE 01 Feb 06:24:30 06:32:37 41° 301° (WNW) 06:40:11 436.750
GONETS M04 01 Feb 06:31:09 06:33:43 11° 344° (NNW) 06:36:05
CUSAT 1 01 Feb 06:37:20 06:44:48 32° 306° (NW) 06:51:34 437.405
PCSat 01 Feb 06:46:07 06:51:14 40° 329° (NNW) 06:56:23 145.827
HORYU 2 01 Feb 06:49:03 06:50:07 11° 314° (NW) 06:51:01 437.375
Cubesat XI-IV 01 Feb 06:51:32 06:56:47 50° 99° (E) 07:02:01 437.490
AO-7 01 Feb 06:54:49 07:02:42 47° 307° (NW) 07:10:29 29.400- 29.500
RS-15 01 Feb 07:03:54 07:14:53 79° 323° (NW) 07:26:09 29.354- 29.394
CUTE-I 01 Feb 07:10:32 07:15:55 67° 103° (ESE) 07:21:17 437.470
STRAND 1 01 Feb 07:26:38 07:31:16 33° 266° (W) 07:35:54 437.568
BEESAT 2 01 Feb 07:36:49 07:40:22 25° 14° (NNE) 07:43:54 435.950
CUBESAT XI-V 01 Feb 07:40:05 07:43:29 20° 273° (W) 07:46:49 437.345
JAS-2 01 Feb 07:46:12 07:50:25 22° 307° (NW) 07:54:48 435.910
BEESAT 3 01 Feb 07:47:38 07:51:15 27° 18° (NNE) 07:54:53 437.485
AIST 2 01 Feb 07:49:39 07:53:12 24° 8° (N) 07:56:46 435.215
TIGRISAT 01 Feb 08:01:05 08:02:04 11° 46° (NE) 08:03:12 435.000
BRITE-PL 01 Feb 08:04:23 08:08:22 20° 83° (E) 08:12:24 437.365/2234.400
CUTE 1.7 + AOD 2 01 Feb 08:11:17 08:12:11 11° 81° (E) 08:13:17 437.475
DANDE 01 Feb 08:13:21 08:18:31 16° 325° (NW) 08:23:09 436.750
YUBILEINY 01 Feb 08:20:28 08:28:24 39° 276° (W) 08:36:14 435.215
CUSAT 1 01 Feb 08:26:57 08:30:29 13° 330° (NNW) 08:33:37 437.405
POPSAT HIP 1 01 Feb 08:31:33 08:32:41 11° 48° (NE) 08:33:56 437.405
PCSat 01 Feb 08:31:36 08:36:01 24° 354° (N) 08:40:26 145.827
Cubesat XI-IV 01 Feb 08:31:54 08:36:49 37° 300° (WNW) 08:41:42 437.490
DUCHIFAT 1 01 Feb 08:32:13 08:33:17 11° 48° (NE) 08:34:32 145.980
GONETS M04 01 Feb 08:33:12 08:35:54 12° 18° (NNE) 08:38:48
SEEDS 01 Feb 08:35:56 08:38:27 16° 86° (E) 08:41:06 437.485
CINEMA 3 01 Feb 08:40:58 08:42:08 11° 78° (ENE) 08:43:31 145.822/145.860
AO-7 01 Feb 08:47:56 08:53:44 21° 332° (NNW) 08:59:22 29.400- 29.500
CUTE-I 01 Feb 08:51:05 08:55:41 29° 304° (WNW) 09:00:13 437.470
UNISAT 6 01 Feb 08:52:25 08:56:05 24° 58° (ENE) 08:59:48 437.425
COMPASS 1 01 Feb 08:57:12 09:00:21 20° 89° (E) 09:03:31 437.405
NANOSAT C BR1 01 Feb 09:05:20 09:08:18 19° 56° (NE) 09:11:22 145.865
HO-68 01 Feb 09:05:49 09:12:31 41° 96° (E) 09:19:14 435.675
BEESAT 2 01 Feb 09:15:07 09:19:18 59° 36° (NE) 09:23:27 435.950
DOVE 4 01 Feb 09:16:43 09:21:30 35° 93° (E) 09:26:06 437.250
RS-15 01 Feb 09:18:05 09:28:49 53° 354° (N) 09:39:56 29.354- 29.394
SO-50 01 Feb 09:19:13 09:20:58 12° 111° (ESE) 09:22:57 436.795
GOMX 1 01 Feb 09:20:12 09:25:30 48° 97° (E) 09:30:35 467.674
AAUSAT CUBESAT 2 01 Feb 09:20:36 09:24:14 29° 93° (E) 09:27:54 437.432
QB50P2 01 Feb 09:21:02 09:24:30 24° 59° (ENE) 09:28:03 145.880/145.840
CANX-2 01 Feb 09:21:11 09:25:18 46° 99° (E) 09:29:22 2200.000
ZACube-1 01 Feb 09:23:25 09:24:12 10° 80° (E) 09:25:12 437.345
BUGSAT 1 01 Feb 09:23:28 09:26:32 21° 57° (ENE) 09:29:43 437.445
BEESAT 3 01 Feb 09:25:47 09:30:00 74° 41° (NE) 09:34:09 437.485
DX 1 01 Feb 09:26:02 09:27:44 12° 83° (E) 09:29:35 434.975-435.025
ANTELSAT 01 Feb 09:27:46 09:32:10 41° 65° (ENE) 09:36:33 437.575/2403.000
AIST 2 01 Feb 09:28:32 09:32:43 45° 31° (NNE) 09:36:52 435.215
QB50P1 01 Feb 09:28:56 09:32:34 27° 61° (ENE) 09:36:16 145.935-145.965
CUBEBUG 2 01 Feb 09:29:07 09:32:02 17° 85° (E) 09:35:00 437.445
FUNcube-1 01 Feb 09:33:14 09:35:12 13° 82° (E) 09:37:18 145.935
TIGRISAT 01 Feb 09:33:24 09:37:51 45° 66° (ENE) 09:42:17 435.000
BRITE-PL 01 Feb 09:42:00 09:47:46 87° 102° (ESE) 09:53:18 437.365/2234.400
CUTE 1.7 + AOD 2 01 Feb 09:44:47 09:49:03 70° 103° (ESE) 09:53:15 437.475
POLYITAN 1 01 Feb 09:45:37 09:49:36 37° 64° (ENE) 09:53:38 437.675
Oscar 11 01 Feb 09:58:20 10:02:19 35° 96° (E) 10:06:17 145.826/435.025
UWE-3 01 Feb 10:01:24 10:05:12 26° 91° (E) 10:08:58 435.000/436.395/437.385
POPSAT HIP 1 01 Feb 10:03:32 10:07:42 51° 68° (ENE) 10:11:56 437.405
DUCHIFAT 1 01 Feb 10:04:08 10:08:17 51° 68° (ENE) 10:12:30 145.980
AIST 1 01 Feb 10:04:14 10:04:30 10° 79° (E) 10:04:58
AISAT 01 Feb 10:06:25 10:08:31 13° 84° (E) 10:10:49 437.250
SEEDS 01 Feb 10:10:41 10:14:54 80° 289° (WNW) 10:19:06 437.485
Cubesat XI-IV 01 Feb 10:14:17 10:15:37 11° 321° (NW) 10:16:47 437.490
CINEMA 3 01 Feb 10:15:40 10:20:34 61° 101° (E) 10:25:12 145.822/145.860
PCSat 01 Feb 10:16:15 10:21:01 29° 20° (NNE) 10:25:46 145.827
UNISAT 6 01 Feb 10:27:50 10:32:33 69° 257° (WSW) 10:37:12 437.425
GONETS M04 01 Feb 10:29:40 10:36:49 28° 50° (NE) 10:44:07
DELFI C3 01 Feb 10:31:28 10:35:29 58° 101° (E) 10:39:29 145.870
VELOX 1 01 Feb 10:31:58 10:35:21 21° 89° (E) 10:38:49 145.980
CUBEBUG 1 01 Feb 10:31:59 10:32:31 10° 81° (E) 10:33:18 437.445
Oscar 19 01 Feb 10:32:17 10:33:23 11° 41° (NE) 10:34:39 437.125/150
COMPASS 1 01 Feb 10:32:20 10:36:28 59° 290° (WNW) 10:40:33 437.405
HUMSAT D 01 Feb 10:33:33 10:37:05 25° 92° (E) 10:40:37 437.325/437.525
UKube-1 01 Feb 10:35:31 10:39:43 44° 99° (E) 10:43:55 .
AO-7 01 Feb 10:39:22 10:43:32 15° 0° (N) 10:47:41 29.400- 29.500
NANOSAT C BR1 01 Feb 10:39:25 10:43:44 80° 257° (WSW) 10:48:04 145.865
HO-68 01 Feb 10:53:35 11:00:37 60° 298° (WNW) 11:07:37 435.675
BEESAT 2 01 Feb 10:53:38 10:57:21 30° 237° (WSW) 11:00:59 435.950
DOVE 4 01 Feb 10:54:23 10:59:27 48° 294° (WNW) 11:04:17 437.250
QB50P2 01 Feb 10:55:55 11:00:10 57° 259° (W) 11:04:27 145.880/145.840
SO-50 01 Feb 10:56:04 11:00:38 58° 130° (SE) 11:05:22 436.795
AAUSAT CUBESAT 2 01 Feb 10:56:07 11:00:04 41° 293° (WNW) 11:03:58 437.432
ZACube-1 01 Feb 10:57:10 11:01:38 65° 102° (ESE) 11:05:57 437.345
CANX-2 01 Feb 10:57:27 11:01:06 28° 298° (WNW) 11:04:41 2200.000
BUGSAT 1 01 Feb 10:57:31 11:01:40 68° 257° (WSW) 11:05:54 437.445
GOMX 1 01 Feb 10:58:30 11:03:33 38° 298° (WNW) 11:08:23 467.674
DX 1 01 Feb 11:00:25 11:04:51 74° 104° (ESE) 11:09:16 434.975-435.025
QB50P1 01 Feb 11:04:07 11:08:18 49° 261° (W) 11:12:31 145.935-145.965
BEESAT 3 01 Feb 11:04:26 11:07:47 23° 240° (WSW) 11:11:03 437.485
ANTELSAT 01 Feb 11:04:43 11:09:04 35° 265° (W) 11:13:20 437.575/2403.000
CUBEBUG 2 01 Feb 11:04:48 11:09:28 83° 287° (WNW) 11:13:55 437.445
AIST 2 01 Feb 11:07:16 11:11:24 45° 233° (SW) 11:15:28 435.215
FUNcube-1 01 Feb 11:07:56 11:12:26 80° 104° (ESE) 11:16:46 145.935
TIGRISAT 01 Feb 11:10:30 11:14:45 32° 266° (W) 11:18:57 435.000
50 SAT 01 Feb 11:13:05 11:16:58 42° 98° (E) 11:20:49 437.505
BRITE-PL 01 Feb 11:21:08 11:25:41 25° 306° (NW) 11:30:03 437.365/2234.400
CUTE 1.7 + AOD 2 01 Feb 11:21:27 11:24:36 20° 302° (WNW) 11:27:40 437.475
POLYITAN 1 01 Feb 11:21:36 11:25:36 35° 264° (W) 11:29:36 437.675
RS-15 01 Feb 11:32:09 11:43:13 64° 26° (NNE) 11:54:47 29.354- 29.394
Oscar 11 01 Feb 11:34:33 11:38:32 36° 296° (WNW) 11:42:29 145.826/435.025
AIST 1 01 Feb 11:37:09 11:41:23 68° 98° (E) 11:45:40
UWE-3 01 Feb 11:37:38 11:42:04 51° 292° (WNW) 11:46:20 435.000/436.395/437.385
SPROUT 01 Feb 11:38:25 11:40:17 13° 83° (E) 11:42:21 437.525
POPSAT HIP 1 01 Feb 11:40:17 11:43:54 25° 268° (W) 11:47:29 437.405
DUCHIFAT 1 01 Feb 11:40:51 11:44:26 25° 268° (W) 11:48:00 145.980
AISAT 01 Feb 11:41:26 11:46:01 78° 105° (ESE) 11:50:32 437.250
SEEDS 01 Feb 11:47:43 11:50:08 15° 306° (NW) 11:52:27 437.485
DANDE 01 Feb 11:51:31 11:53:18 11° 21° (NNE) 11:55:10 436.750
CINEMA 3 01 Feb 11:53:20 11:57:27 27° 302° (WNW) 12:01:22 145.822/145.860
ESTCUBE 1 01 Feb 11:55:25 11:59:54 54° 100° (E) 12:04:22 437.505/2401.250
PCSat 01 Feb 11:59:51 12:05:19 70° 44° (NE) 12:10:45 145.827
CUSAT 1 01 Feb 12:02:24 12:04:16 11° 25° (NNE) 12:06:11 437.405
TISAT 1 01 Feb 12:02:35 12:05:42 19° 89° (E) 12:08:52 437.305
CUBEBUG 1 01 Feb 12:05:29 12:09:55 63° 102° (ESE) 12:14:21 437.445
Oscar 19 01 Feb 12:06:45 12:11:31 39° 62° (ENE) 12:16:20 437.125/150
DELFI C3 01 Feb 12:07:17 12:10:27 22° 300° (WNW) 12:13:33 145.870
VELOX 1 01 Feb 12:07:56 12:12:25 66° 290° (WNW) 12:16:53 145.980
UNISAT 6 01 Feb 12:08:18 12:10:17 12° 278° (W) 12:12:03 437.425
HUMSAT D 01 Feb 12:09:01 12:13:10 49° 292° (WNW) 12:17:13 437.325/437.525
COMPASS 1 01 Feb 12:09:52 12:11:26 12° 309° (NW) 12:12:51 437.405
Gurwin Techsat 1B 01 Feb 12:10:50 12:14:08 17° 48° (NE) 12:17:34 435.225
UKube-1 01 Feb 12:11:55 12:15:48 31° 299° (WNW) 12:19:38 .
NANOSAT C BR1 01 Feb 12:18:22 12:20:25 13° 276° (W) 12:22:18 145.865
GONETS M04 01 Feb 12:26:29 12:35:15 82° 77° (ENE) 12:43:59
AO-7 01 Feb 12:27:35 12:33:21 22° 28° (NNE) 12:39:14 29.400- 29.500
ITAMSAT 1 01 Feb 12:31:14 12:35:35 28° 57° (ENE) 12:40:01 435.822/435.867
DOVE 4 01 Feb 12:33:43 12:36:07 13° 315° (NW) 12:38:19 437.250
ZACube-1 01 Feb 12:34:08 12:37:40 23° 302° (WNW) 12:41:03 437.345
SO-50 01 Feb 12:36:52 12:41:24 44° 333° (NNW) 12:46:04 436.795
BUGSAT 1 01 Feb 12:37:18 12:38:07 10° 278° (W) 12:38:43 437.445
DX 1 01 Feb 12:37:23 12:40:43 21° 304° (NW) 12:43:57 434.975-435.025
GOMX 1 01 Feb 12:38:44 12:40:20 11° 319° (NW) 12:41:44 467.674
HO-68 01 Feb 12:42:01 12:47:09 21° 321° (NW) 12:52:09 435.675
CUBEBUG 2 01 Feb 12:42:29 12:45:32 17° 307° (NW) 12:48:24 437.445
BEESAT 01 Feb 12:44:41 12:45:37 11° 80° (E) 12:46:47 436.000
FUNcube-1 01 Feb 12:45:05 12:48:18 19° 304° (NW) 12:51:24 145.935
50 SAT 01 Feb 12:48:27 12:51:58 28° 298° (WNW) 12:55:25 437.505
ITUPSAT 1 01 Feb 12:50:12 12:51:53 12° 81° (E) 12:53:47 437.325
HORYU 2 01 Feb 13:05:08 13:07:23 14° 50° (NE) 13:09:44 437.375
SPROUT 01 Feb 13:12:50 13:17:14 79° 104° (ESE) 13:21:35 437.525
UWE-3 01 Feb 13:16:04 13:17:41 12° 312° (NW) 13:19:08 435.000/436.395/437.385
AIST 1 01 Feb 13:16:23 13:19:34 20° 300° (WNW) 13:22:42
AISAT 01 Feb 13:18:49 13:22:11 21° 305° (NW) 13:25:29 437.250
ESTCUBE 1 01 Feb 13:32:44 13:36:34 27° 300° (WNW) 13:40:22 437.505/2401.250
DANDE 01 Feb 13:33:57 13:39:51 27° 48° (NE) 13:44:43 436.750
TISAT 1 01 Feb 13:37:42 13:42:00 67° 289° (WNW) 13:46:15 437.305
CUBEBUG 1 01 Feb 13:42:25 13:46:00 24° 302° (WNW) 13:49:32 437.445
PCSat 01 Feb 13:43:41 13:48:25 31° 245° (WSW) 13:53:05 145.827
CUSAT 1 01 Feb 13:44:12 13:50:02 31° 53° (NE) 13:54:41 437.405
RS-15 01 Feb 13:44:55 13:56:02 68° 234° (SW) 14:07:35 29.354- 29.394
VELOX 1 01 Feb 13:45:50 13:48:16 14° 310° (NW) 13:50:35 145.980
Oscar 19 01 Feb 13:45:53 13:50:52 45° 262° (W) 13:55:51 437.125/150
HUMSAT D 01 Feb 13:47:18 13:48:04 10° 312° (NW) 13:48:41 437.325/437.525
Gurwin Techsat 1B 01 Feb 13:48:03 13:53:18 67° 70° (ENE) 13:58:38 435.225
SWISSCUBE 01 Feb 14:04:48 14:09:27 49° 99° (E) 14:14:07 437.505
ITAMSAT 1 01 Feb 14:09:37 14:14:47 66° 257° (WSW) 14:20:00 435.822/435.867
AO-7 01 Feb 14:16:32 14:24:25 49° 53° (NE) 14:32:23 29.400- 29.500
SO-50 01 Feb 14:18:51 14:22:59 28° 357° (N) 14:27:12 436.795
BEESAT 01 Feb 14:19:51 14:24:37 60° 102° (ESE) 14:29:21 436.000
GONETS M04 01 Feb 14:24:01 14:31:20 31° 280° (W) 14:38:29
ITUPSAT 1 01 Feb 14:26:02 14:30:51 66° 103° (ESE) 14:35:37 437.325
HO-68 01 Feb 14:31:06 14:32:21 10° 347° (NNW) 14:33:28 435.675
JAS-2 01 Feb 14:37:22 14:41:09 21° 52° (NE) 14:45:03 435.910
HORYU 2 01 Feb 14:38:51 14:43:19 65° 70° (ENE) 14:47:48 437.375
SPROUT 01 Feb 14:49:43 14:52:53 19° 304° (NW) 14:55:56 437.525
STARS 01 Feb 15:04:25 15:08:17 28° 93° (E) 15:12:10 437.465
TISAT 1 01 Feb 15:14:56 15:17:07 14° 309° (NW) 15:19:10 437.305
DANDE 01 Feb 15:17:23 15:24:30 86° 259° (W) 15:29:44 436.750
KKS-1 01 Feb 15:18:46 15:23:11 52° 100° (E) 15:27:35 437.445
CUTE-I 01 Feb 15:24:31 15:26:32 12° 41° (NE) 15:28:44 437.470
CUSAT 1 01 Feb 15:27:17 15:33:47 64° 262° (W) 15:38:34 437.405
Gurwin Techsat 1B 01 Feb 15:29:23 15:33:49 26° 270° (W) 15:38:11 435.225
SWISSCUBE 01 Feb 15:42:57 15:47:12 32° 300° (WNW) 15:51:26 437.505
ITAMSAT 1 01 Feb 15:53:00 15:55:27 13° 279° (W) 15:57:40 435.822/435.867
BEESAT 01 Feb 15:58:11 16:02:12 27° 302° (WNW) 16:06:10 436.000
RS-15 01 Feb 15:58:14 16:06:34 24° 258° (WSW) 16:14:41 29.354- 29.394
SO-50 01 Feb 16:00:11 16:04:40 36° 20° (NNE) 16:09:14 436.795
ITUPSAT 1 01 Feb 16:04:30 16:08:25 25° 303° (WNW) 16:12:18 437.325
O/OREOS (USA 219) 01 Feb 16:04:56 16:09:05 37° 110° (ESE) 16:13:18 437.305
AO-7 01 Feb 16:08:54 16:17:11 60° 256° (WSW) 16:25:29 29.400- 29.500
M-CUBED/EXP-1 PRIME 01 Feb 16:12:37 16:15:37 31° 104° (ESE) 16:18:41 437.505
HO-68 01 Feb 16:15:29 16:16:55 11° 15° (NNE) 16:18:28 435.675
HORYU 2 01 Feb 16:16:57 16:20:27 21° 270° (W) 16:23:52 437.375
JAS-2 01 Feb 16:20:30 16:25:47 86° 253° (WSW) 16:31:02 435.910
STARS 01 Feb 16:40:41 16:44:59 47° 294° (WNW) 16:49:14 437.465
Cubesat XI-IV 01 Feb 16:41:57 16:46:40 34° 59° (ENE) 16:51:29 437.490
AUBIESAT-1 01 Feb 16:42:30 16:45:48 58° 109° (ESE) 16:49:10 437.475
KKS-1 01 Feb 16:55:47 16:59:39 28° 300° (WNW) 17:03:27 437.445
CUTE-I 01 Feb 17:00:26 17:05:27 43° 63° (ENE) 17:10:32 437.470
DANDE 01 Feb 17:02:02 17:06:42 20° 284° (WNW) 17:10:28 436.750
CUSAT 1 01 Feb 17:12:19 17:15:10 13° 288° (WNW) 17:17:31 437.405
MOZHAYETS 4 01 Feb 17:24:23 17:28:51 49° 99° (E) 17:33:18
SO-50 01 Feb 17:40:49 17:45:45 89° 217° (SW) 17:50:43 436.795
YUBILEINY 01 Feb 17:41:52 17:46:25 16° 68° (ENE) 17:51:24 435.215
O/OREOS (USA 219) 01 Feb 17:44:10 17:48:29 42° 312° (NW) 17:52:52 437.305
BRITE-PL 01 Feb 17:47:28 17:49:32 12° 42° (NE) 17:51:48 437.365/2234.400
M-CUBED/EXP-1 PRIME 01 Feb 17:47:44 17:50:38 28° 303° (WNW) 17:53:33 437.505
CUBESAT XI-V 01 Feb 17:52:08 17:53:49 12° 81° (E) 17:55:43 437.345
PRISM 01 Feb 17:56:07 17:58:09 13° 86° (E) 18:00:19 437.425
HO-68 01 Feb 17:57:01 18:02:10 22° 40° (NE) 18:07:27 435.675
AO-7 01 Feb 18:06:55 18:12:05 17° 281° (WNW) 18:16:51 29.400- 29.500
JAS-2 01 Feb 18:08:38 18:11:55 16° 276° (W) 18:15:00 435.910
AUBIESAT-1 01 Feb 18:18:10 18:20:30 18° 308° (NW) 18:22:47 437.475
STARS 01 Feb 18:19:25 18:20:32 11° 314° (NW) 18:21:29 437.465
Cubesat XI-IV 01 Feb 18:21:23 18:26:37 55° 259° (W) 18:31:55 437.490
CUTE-I 01 Feb 18:40:35 18:45:38 41° 263° (W) 18:50:41 437.470
AAUSAT CUBESAT 2 01 Feb 18:47:06 18:47:48 10° 49° (NE) 18:48:39 437.432
CANX-2 01 Feb 18:47:30 18:50:03 16° 54° (NE) 18:52:42 2200.000
DOVE 4 01 Feb 18:53:39 18:57:06 18° 51° (NE) 19:00:42 437.250
GOMX 1 01 Feb 18:58:34 19:02:45 24° 55° (NE) 19:07:07 467.674
MOZHAYETS 4 01 Feb 19:01:57 19:05:56 29° 299° (WNW) 19:09:52
CUTE 1.7 + AOD 2 01 Feb 19:10:14 19:13:28 22° 59° (ENE) 19:16:45 437.475
BRITE-PL 01 Feb 19:21:43 19:26:43 41° 63° (ENE) 19:32:02 437.365/2234.400
SO-50 01 Feb 19:22:01 19:25:49 22° 243° (WSW) 19:29:32 436.795
O/OREOS (USA 219) 01 Feb 19:26:32 19:29:10 15° 336° (NNW) 19:31:44 437.305
Oscar 11 01 Feb 19:26:41 19:28:48 14° 52° (NE) 19:31:04 145.826/435.025
CUBESAT XI-V 01 Feb 19:27:34 19:32:17 68° 103° (ESE) 19:36:59 437.345
STRAND 1 01 Feb 19:28:54 19:33:55 49° 99° (E) 19:38:57 437.568
PRISM 01 Feb 19:30:11 19:34:22 88° 101° (ESE) 19:38:33 437.425
UWE-3 01 Feb 19:32:20 19:34:06 12° 48° (NE) 19:36:02 435.000/436.395/437.385
YUBILEINY 01 Feb 19:33:04 19:41:27 58° 92° (E) 19:49:59 435.215
SEEDS 01 Feb 19:34:53 19:38:32 29° 62° (ENE) 19:42:14 437.485
HO-68 01 Feb 19:41:46 19:48:47 64° 63° (ENE) 19:55:52 435.675
CINEMA 3 01 Feb 19:48:15 19:52:20 26° 58° (ENE) 19:56:30 145.822/145.860
DELFI C3 01 Feb 19:53:23 19:55:56 17° 56° (NE) 19:58:35 145.870
COMPASS 1 01 Feb 19:55:32 19:59:24 36° 65° (ENE) 20:03:17 437.405
HUMSAT D 01 Feb 20:01:22 20:01:37 10° 48° (NE) 20:02:01 437.325/437.525
UKube-1 01 Feb 20:03:17 20:06:12 18° 54° (NE) 20:09:13 .
VELOX 1 01 Feb 20:04:32 20:05:09 10° 45° (NE) 20:05:56 145.980
Cubesat XI-IV 01 Feb 20:06:49 20:08:07 11° 282° (WNW) 20:09:08 437.490
AAUSAT CUBESAT 2 01 Feb 20:18:34 20:22:38 51° 69° (ENE) 20:26:44 437.432
CANX-2 01 Feb 20:21:08 20:25:26 84° 73° (ENE) 20:29:45 2200.000
ZACube-1 01 Feb 20:25:02 20:28:39 23° 58° (ENE) 20:32:19 437.345
DX 1 01 Feb 20:27:50 20:31:31 27° 60° (ENE) 20:35:17 434.975-435.025
DOVE 4 01 Feb 20:28:52 20:34:04 71° 72° (ENE) 20:39:27 437.250
CUBEBUG 2 01 Feb 20:33:50 20:38:09 35° 63° (ENE) 20:42:29 437.445
50 SAT 01 Feb 20:34:51 20:36:51 14° 53° (NE) 20:38:59 437.505
GOMX 1 01 Feb 20:34:58 20:40:18 85° 255° (WSW) 20:45:53 467.674
FUNcube-1 01 Feb 20:35:20 20:39:11 27° 60° (ENE) 20:43:04 145.935
CUTE 1.7 + AOD 2 01 Feb 20:44:47 20:49:04 66° 258° (WSW) 20:53:20 437.475
Oscar 11 01 Feb 20:59:59 21:04:18 68° 71° (ENE) 21:08:38 145.826/435.025
BRITE-PL 01 Feb 21:00:05 21:05:13 46° 264° (W) 21:10:39 437.365/2234.400
UWE-3 01 Feb 21:05:12 21:09:46 52° 68° (ENE) 21:14:20 435.000/436.395/437.385
CUBESAT XI-V 01 Feb 21:05:37 21:09:23 24° 302° (WNW) 21:13:05 437.345
PRISM 01 Feb 21:06:41 21:09:24 17° 306° (NW) 21:12:00 437.425
STRAND 1 01 Feb 21:08:22 21:13:02 35° 300° (WNW) 21:17:40 437.568
SEEDS 01 Feb 21:10:10 21:14:15 44° 262° (W) 21:18:21 437.485
AISAT 01 Feb 21:10:52 21:14:44 30° 61° (ENE) 21:18:40 437.250
CINEMA 3 01 Feb 21:24:09 21:29:11 70° 258° (WSW) 21:34:15 145.822/145.860
DELFI C3 01 Feb 21:26:36 21:30:42 84° 255° (WSW) 21:34:48 145.870
ESTCUBE 1 01 Feb 21:26:53 21:30:19 22° 57° (ENE) 21:33:49 437.505/2401.250
YUBILEINY 01 Feb 21:30:20 21:38:40 47° 297° (WNW) 21:47:02 435.215
HO-68 01 Feb 21:30:24 21:36:59 38° 266° (W) 21:43:33 435.675
COMPASS 1 01 Feb 21:31:19 21:35:11 33° 265° (W) 21:39:01 437.405
HUMSAT D 01 Feb 21:32:20 21:36:30 46° 67° (ENE) 21:40:41 437.325/437.525
CUBEBUG 1 01 Feb 21:33:49 21:37:13 23° 58° (ENE) 21:40:42 437.445
VELOX 1 01 Feb 21:36:32 21:40:46 44° 66° (ENE) 21:45:04 145.980
AIST 1 01 Feb 21:36:47 21:40:53 39° 69° (ENE) 21:45:01
UKube-1 01 Feb 21:37:30 21:41:51 87° 253° (WSW) 21:46:16 .
AAUSAT CUBESAT 2 01 Feb 21:55:08 21:58:35 24° 269° (W) 22:02:00 437.432
CANX-2 01 Feb 21:59:25 22:02:02 15° 274° (W) 22:04:32 2200.000
ZACube-1 01 Feb 22:00:04 22:04:41 68° 257° (WSW) 22:09:17 437.345
DX 1 01 Feb 22:03:20 22:07:35 51° 260° (W) 22:11:54 434.975-435.025
50 SAT 01 Feb 22:07:12 22:11:20 72° 72° (ENE) 22:15:28 437.505
DOVE 4 01 Feb 22:08:06 22:12:23 24° 272° (W) 22:16:41 437.250
CUBEBUG 2 01 Feb 22:10:11 22:14:47 44° 263° (W) 22:19:22 437.445
FUNcube-1 01 Feb 22:10:45 22:15:19 56° 260° (W) 22:19:51 145.935
UNISAT 6 01 Feb 22:13:54 22:16:36 16° 85° (E) 22:19:25 437.425
GOMX 1 01 Feb 22:15:38 22:19:20 18° 277° (W) 22:22:59 467.674
ISS 01 Feb 22:15:43 22:18:22 23° 155° (SSE) 22:21:03 145.825
NANOSAT C BR1 01 Feb 22:19:35 22:20:48 11° 82° (E) 22:22:14 145.865
CUTE 1.7 + AOD 2 01 Feb 22:25:16 22:25:57 10° 279° (W) 22:26:26 437.475
BUGSAT 1 01 Feb 22:34:24 22:36:07 12° 83° (E) 22:38:02 437.445
QB50P2 01 Feb 22:35:12 22:37:49 16° 86° (E) 22:40:32 145.880/145.840
Oscar 11 01 Feb 22:37:47 22:40:59 19° 272° (W) 22:44:06 145.826/435.025
SPROUT 01 Feb 22:39:04 22:42:38 25° 60° (ENE) 22:46:15 437.525
UWE-3 01 Feb 22:42:29 22:46:34 28° 268° (W) 22:50:37 435.000/436.395/437.385
QB50P1 01 Feb 22:42:51 22:45:49 18° 88° (E) 22:48:51 145.935-145.965
AISAT 01 Feb 22:46:52 22:51:13 48° 260° (W) 22:55:37 437.250
O/OREOS (USA 219) 01 Feb 22:49:12 22:52:01 16° 26° (NNE) 22:54:55 437.305
ANTELSAT 01 Feb 22:49:28 22:53:26 31° 94° (E) 22:57:21 437.575/2403.000
TIGRISAT 01 Feb 22:54:45 22:58:49 33° 94° (E) 23:02:49 435.000
POLYITAN 1 01 Feb 23:00:00 23:03:36 25° 92° (E) 23:07:14 437.675
TISAT 1 01 Feb 23:01:47 23:05:42 37° 64° (ENE) 23:09:42 437.305
ESTCUBE 1 01 Feb 23:02:20 23:06:50 70° 257° (WSW) 23:11:22 437.505/2401.250
CINEMA 3 01 Feb 23:04:48 23:07:24 14° 279° (W) 23:09:48 145.822/145.860
DELFI C3 01 Feb 23:04:52 23:06:41 12° 276° (W) 23:08:21 145.870
HUMSAT D 01 Feb 23:08:42 23:12:30 28° 267° (W) 23:16:15 437.325/437.525
CUBEBUG 1 01 Feb 23:08:53 23:13:15 65° 258° (WSW) 23:17:40 437.445
VELOX 1 01 Feb 23:13:35 23:17:32 30° 266° (W) 23:21:30 145.980
AIST 1 01 Feb 23:14:38 23:18:30 31° 270° (W) 23:22:20
UKube-1 01 Feb 23:16:23 23:18:47 14° 275° (W) 23:21:02 .
POPSAT HIP 1 01 Feb 23:17:37 23:21:36 35° 96° (E) 23:25:34 437.405
DUCHIFAT 1 01 Feb 23:17:50 23:21:48 34° 96° (E) 23:25:45 145.980
YUBILEINY 01 Feb 23:32:55 23:38:24 17° 326° (NW) 23:43:41 435.215
ZACube-1 01 Feb 23:40:14 23:42:01 12° 279° (W) 23:43:36 437.345
SWISSCUBE 01 Feb 23:42:11 23:45:58 25° 57° (ENE) 23:49:50 437.505
GONETS M04 01 Feb 23:43:30 23:49:17 21° 73° (ENE) 23:55:21
50 SAT 01 Feb 23:44:09 23:46:58 17° 273° (W) 23:49:39 437.505
UNISAT 6 01 Feb 23:49:36 23:54:07 83° 287° (WNW) 23:58:31 437.425
ISS 01 Feb 23:51:15 23:54:25 43° 174° (S) 23:57:33 145.825
NANOSAT C BR1 01 Feb 23:53:16 23:57:36 71° 103° (ESE) 00:01:53 145.865
BEESAT 01 Feb 23:56:49 00:00:52 29° 59° (ENE) 00:05:00 436.000
ITUPSAT 1 02 Feb 00:03:10 00:07:20 31° 60° (ENE) 00:11:34 437.325
BUGSAT 1 02 Feb 00:08:07 00:12:27 78° 104° (ESE) 00:16:44 437.445
QB50P2 02 Feb 00:10:01 00:14:23 83° 288° (WNW) 00:18:41 145.880/145.840
SPROUT 02 Feb 00:14:13 00:18:29 55° 259° (W) 00:22:48 437.525
QB50P1 02 Feb 00:17:55 00:22:15 72° 288° (WNW) 00:26:32 145.935-145.965
ANTELSAT 02 Feb 00:26:09 00:30:25 42° 294° (WNW) 00:34:32 437.575/2403.000
O/OREOS (USA 219) 02 Feb 00:28:07 00:32:35 48° 50° (NE) 00:37:04 437.305
TIGRISAT 02 Feb 00:31:28 00:35:41 39° 295° (WNW) 00:39:45 435.000
STARS 02 Feb 00:34:55 00:36:59 13° 50° (NE) 00:39:12 437.465
POLYITAN 1 02 Feb 00:35:36 00:39:50 51° 292° (WNW) 00:44:01 437.675
TISAT 1 02 Feb 00:37:40 00:41:35 34° 264° (W) 00:45:32 437.305
ESTCUBE 1 02 Feb 00:42:58 00:44:40 12° 278° (W) 00:46:11 437.505/2401.250
KKS-1 02 Feb 00:48:55 00:52:17 22° 56° (ENE) 00:55:45 437.445
CUBEBUG 1 02 Feb 00:49:41 00:50:39 10° 279° (W) 00:51:23 437.445
POPSAT HIP 1 02 Feb 00:53:33 00:57:33 37° 296° (WNW) 01:01:31 437.405
DUCHIFAT 1 02 Feb 00:53:42 00:57:43 37° 296° (WNW) 01:01:40 145.980
BEESAT 3 02 Feb 01:07:04 01:08:27 12° 112° (ESE) 01:09:59 437.485
SWISSCUBE 02 Feb 01:18:45 01:23:30 68° 257° (WSW) 01:28:17 437.505
UNISAT 6 02 Feb 01:27:25 01:30:19 17° 307° (NW) 01:33:03 437.425
ISS 02 Feb 01:27:30 01:30:33 35° 194° (SSW) 01:33:36 145.825
NANOSAT C BR1 02 Feb 01:29:50 01:33:05 21° 303° (WNW) 01:36:16 145.865
BEESAT 02 Feb 01:33:51 01:38:32 55° 259° (W) 01:43:15 436.000
M-CUBED/EXP-1 PRIME 02 Feb 01:34:34 01:37:32 24° 55° (NE) 01:40:23 437.505
GONETS M04 02 Feb 01:36:03 01:44:43 72° 96° (E) 01:53:24
ITUPSAT 1 02 Feb 01:40:28 01:45:07 49° 260° (W) 01:49:47 437.325
BUGSAT 1 02 Feb 01:44:24 01:47:31 19° 304° (WNW) 01:50:32 437.445
QB50P2 02 Feb 01:47:02 01:49:43 16° 307° (NW) 01:52:17 145.880/145.840
Oscar 19 02 Feb 01:49:44 01:54:34 39° 96° (E) 01:59:23 437.125/150
QB50P1 02 Feb 01:55:06 01:57:28 14° 308° (NW) 01:59:44 145.935-145.965
Gurwin Techsat 1B 02 Feb 01:57:53 02:00:58 16° 83° (E) 02:04:14 435.225
AUBIESAT-1 02 Feb 02:03:42 02:07:06 38° 61° (ENE) 02:10:21 437.475
O/OREOS (USA 219) 02 Feb 02:07:47 02:11:55 32° 251° (WSW) 02:15:59 437.305
STARS 02 Feb 02:08:18 02:12:42 61° 69° (ENE) 02:17:09 437.465
POLYITAN 1 02 Feb 02:13:40 02:14:54 11° 312° (NW) 02:16:00 437.675
ITAMSAT 1 02 Feb 02:15:16 02:19:39 27° 91° (E) 02:24:06 435.822/435.867
KKS-1 02 Feb 02:24:02 02:28:33 73° 256° (WSW) 02:33:05 437.445
BEESAT 2 02 Feb 02:32:06 02:36:06 47° 128° (SE) 02:40:10 435.950
BEESAT 3 02 Feb 02:41:45 02:45:50 61° 131° (SE) 02:49:59 437.485
AIST 2 02 Feb 02:50:06 02:54:00 35° 124° (SE) 02:57:58 435.215
PCSat 02 Feb 02:52:44 02:54:26 12° 104° (ESE) 02:56:25 145.827
DANDE 02 Feb 02:53:48 03:00:11 25° 81° (E) 03:06:34 436.750
MOZHAYETS 4 02 Feb 02:57:57 03:01:16 21° 56° (NE) 03:04:41
CUSAT 1 02 Feb 02:59:51 03:06:37 29° 84° (E) 03:13:10 437.405
SWISSCUBE 02 Feb 03:00:26 03:02:24 12° 278° (W) 03:04:09 437.505
ISS 02 Feb 03:04:31 03:06:25 14° 213° (SSW) 03:08:16 145.825
M-CUBED/EXP-1 PRIME 02 Feb 03:08:48 03:12:25 44° 253° (WSW) 03:15:48 437.505
Oscar 19 02 Feb 03:29:08 03:34:01 43° 297° (WNW) 03:38:51 437.125/150
GONETS M04 02 Feb 03:34:18 03:42:23 39° 301° (WNW) 03:50:22
Gurwin Techsat 1B 02 Feb 03:36:35 03:41:57 77° 104° (ESE) 03:47:17 435.225
YUBILEINY 02 Feb 03:36:58 03:42:07 17° 33° (NNE) 03:47:31 435.215
AUBIESAT-1 02 Feb 03:39:01 03:42:10 25° 258° (WSW) 03:45:08 437.475
STARS 02 Feb 03:46:03 03:49:36 22° 270° (W) 03:53:05 437.465
ITAMSAT 1 02 Feb 03:54:24 03:59:36 63° 292° (WNW) 04:04:46 435.822/435.867
HORYU 2 02 Feb 03:59:41 04:04:00 47° 99° (E) 04:08:18 437.375
KKS-1 02 Feb 04:04:09 04:06:07 12° 277° (W) 04:07:54 437.445
